STARLINK-2010 (47634 NORAD) Tracking and Keplerian Element Data

This shows tracking and keplerian element data for the satellite.

Feedback or suggestion? Click here.




ElementValue
Catalog47634
NameSTARLINK-2010
Epoch Orbit183
Epoch Day56.91667824
Epoch Year2021
RAAN53.6757
Inclination53.0488
Eccentricity0.000114
Argument of Perigee64.5641
Mean Anonmoly22.8709
Mean Motion15.79378455
Decay Rate-0.01069019
L11 47634U 21012Q 21056.91667824 -.01069019 00000-0 -64378-2 0 9995
L22 47634 53.0488 53.6757 0001140 64.5641 22.8709 15.79378455 1833

Live tracking and technical data element details for STARLINK-2010 (NORAD 47634). STARLINK-2010 can be tracked NOW for your location showing map with azimuth and elevation plus other details from your city location.

Track the satellite on the map from your city or location and see movement details for azimuth, elevation, latitude, longitude, range, height, and movement on the map or in text.







IsCatalogInMostPopularTable: catalog: 47634, numindb: 1
Update: records affected: 1



GetName: 47634 STARLINK-2010

Hit Count: updated at: Fri, 26 Feb 2021 10:09:55 GMT